Regional Weather Roundup
Issued by NWS

Home | Current Version | Previous Version | Graphics & Text | Print | Product List | Glossary On
Versions: 1 2 3 4 5 6 7 8 9 10 11 12 13 14 15 16 17 18 19 20 21 22 23 24 25 26 27 28 29 30 31 32 33 34 35 36 37 38 39 40 41 42 43 44 45 46 47 48 49 50
000
ASUS45 KTFX 060510
RWRMT
MONTANA REGIONAL WEATHER ROUNDUP
NATIONAL WEATHER SERVICE GREAT FALLS MT
1000 PM MST MON DEC 05 2016

NOTE: "FAIR" INDICATES FEW OR NO CLOUDS BELOW 12000 FEET WITH NO
SIGNIFICANT WEATHER AND/OR OBSTRUCTIONS TO VISIBILITY.

MTZ001>007-043-060600-
WEST OF THE DIVIDE

CITY           SKY/WX    TMP DP  RH WIND       PRES   REMARKS
KALISPELL      CLOUDY    16  14  92 CALM      30.02S
MISSOULA       CLOUDY    21  16  81 CALM      30.02S
BUTTE          PTCLDY     8   2  76 CALM      29.90S
MULLAN PASS    CLOUDY    11   8  88 SE3       29.82S
ANACONDA         N/A     12   9  85 CALM      29.94S
DEER LODGE       N/A     16  12  86 CALM      29.97S
EUREKA           N/A     19  16  86 CALM      30.03S
HAMILTON         N/A     21  10  63 S12       29.99R WCI   9
LIBBY            N/A     16  12  86 CALM      30.04R
PLAINS           N/A     23  16  75 CALM      30.04S
RONAN            N/A     21  16  81 CALM      30.03S
$$

MTZ008-052>055-060600-
SOUTHWEST MONTANA

CITY           SKY/WX    TMP DP  RH WIND       PRES   REMARKS
BOZEMAN        LGT SNOW  17  14  88 N3        29.97R FOG
DILLON         CLOUDY     7  -2  66 W7        29.92R WCI  -5
W YELLOWSTONE  CLOUDY     0  -4  85 CALM      29.89R
ENNIS          CLOUDY    14  -2  48 S10       29.97R WCI   1
THREE FORKS      N/A     14 -29  13 CALM      29.97S
TWIN BRIDGES     N/A     15  -1  49 SE2       29.93F
$$

MTZ009-010-012-014-046-048-049-054-060600-
EAST SLOPES AND CENTRAL MONTANA

CITY           SKY/WX    TMP DP  RH WIND       PRES   REMARKS
CUT BANK       CLOUDY     4  -1  80 NW10      30.08S HAZE    WCI -11
GREAT FALLS    MOCLDY     2  -2  83 W6        30.09S WCI  -9
MALMSTROM AFB  FLURRIES   7   1  78 W8        30.11S WCI  -6
HELENA         CLOUDY    10   3  73 W8        30.05R WCI  -2
AUGUSTA        FLURRIES   3  -1  83 NW5       30.02S
BOWMANS CRNR   MOCLDY     0  -3  86 NW5       30.02S
CHOTEAU          N/A      5   1  85 MISG      30.09S HAZE
CONRAD           N/A      8   4  84 W6        30.09R WCI  -2
FAIRFIELD      MOCLDY     1  -3  83 S1        30.07S
POWER          FLURRIES   2  -2  82 W10       30.07S WCI -13
RAYNESFORD     FLURRIES   5   2  86 W7        30.06S WCI  -7
ULM            FLURRIES   4   1  90 NW9       30.10S WCI -11
$$

MTZ011-013-016-021-045-047-050-051-060600-
NORTH CENTRAL MONTANA

CITY           SKY/WX    TMP DP  RH WIND       PRES   REMARKS
HAVRE          PTCLDY     6  -1  73 W9        30.16R WCI  -8
LEWISTOWN      FLURRIES   6   3  87 W9        30.01S WCI  -8
N BAR RANCH    MOCLDY     5  -4  66 NW12      29.96S WCI -11
CHINOOK          N/A      3  -2  78 W13       30.16R WCI -14
DENTON         FLURRIES   7   4  86 NW8G24    30.03R WCI  -6
GEYSER         FLURRIES   5   1  83 W13G25    30.02R WCI -11
GRASS RANGE    CLOUDY     8   3  78 W20G28    29.98R WCI -11
JUDITH GAP     FLURRIES   0  -3  85 MISG      29.96R
ROY            MOCLDY     7   3  84 MISG      30.00S
STANFORD       FLURRIES   4   1  86 NW16      29.99R WCI -14
WINIFRED       FLURRIES   5   2  87 MISG      30.04S
$$

MTZ017>020-022>027-061-062-060600-
NORTHEAST MONTANA

CITY           SKY/WX    TMP DP  RH WIND       PRES   REMARKS
GLASGOW        CLOUDY     7   0  73 W28       30.05R WCI -16
JORDAN           N/A      4  -2  76 NW15      30.06R WCI -14
SIDNEY         LGT SNOW   8   3  80 NW31G40   29.93S WCI -15
WOLF POINT     CLOUDY    10   1  67 NW22G29   30.06R WCI -10
PLENTYWOOD       N/A      7   3  85 NW28G36   29.91R VSB 1/2 WCI -16
POPLAR           N/A      9   0  66 NW14G22   30.03R WCI  -8
SCOBEY           N/A      5 -10  50 NW22      29.96R WCI -16
$$

MTZ028>42-056>058-060600-
SOUTHCENTRAL AND SOUTHEAST MONTANA

CITY           SKY/WX    TMP DP  RH WIND       PRES   REMARKS
BAKER          CLOUDY     6  -1  73 NW25G35   29.93S WCI -16
BILLINGS       CLOUDY    16   5  62 W7        30.01R WCI   6
LIVINGSTON     LGT SNOW  16  12  84 W6        29.94S FOG     WCI   7
MILES CITY     CLOUDY     8  -1  66 NW16      30.05R WCI -10
BIG TIMBER     CLOUDY    18  14  86 SW13      29.96S FOG     WCI   4
EKALAKA          N/A      4  -5  66 W14       29.89R WCI -13
FORSYTH          N/A     10   3  72 W7        30.06R WCI   0
HARLOWTON        N/A      6   0  78 N20       29.96R WCI -14
LAUREL           N/A     16   2  54 W3        29.99R
$$

REGIONAL REPORTS...DAKOTAS

CITY           SKY/WX    TMP DP  RH WIND       PRES   REMARKS
WILLISTON      LGT SNOW  11   6  81 NW28G39   29.90R VSB 1   WCI -10
MINOT          LGT SNOW  23  21  92 NW22G31   29.65R VSB 3/4 WCI   8
DICKINSON      LGT SNOW   5   1  83 W36G45    29.79S VSB 3/4 WCI -21
BEACH          LGT SNOW   5   1  85 NW28G35   29.94R WCI -18
CROSBY         SNOW      10   9  92 NW35G43   29.87S VSB 1/2 WCI -13
TIOGA          SNOW      10  10 100 NW33G41   29.81R VSB 1/2 WCI -13
WATFORD CITY   LGT SNOW   9   5  85 NW24G36   29.86S VSB 1   WCI -12
BISMARCK       LGT SNOW  14  11  87 W29G43    29.69S FOG     WCI  -7
GRAND FORKS    SNOW      30  27  88 NE20      29.41F VSB 1/2 WCI  17
FARGO          CLOUDY    33  31  92 SW18G26   29.39F FOG     WCI  22
BUFFALO SD       N/A      9   2  73 NW38G48   29.79F WCI -16
RAPID CITY     CLEAR     17   4  56 NW17      29.88R WCI   1
$$

REGIONAL REPORTS...WYOMING/IDAHO/WASHINGTON

CITY           SKY/WX    TMP DP  RH WIND       PRES   REMARKS
GILLETTE       CLEAR      3  -1  83 W13       29.92S WCI -14
SHERIDAN       PTCLDY     7   0  73 NW12      29.96S WCI  -8
BUFFALO WY     PTCLDY    11   0  61 S9        29.91S WCI  -2
CODY           CLEAR      0  -5  79 NW5       29.92F
YELLOWSTONE LA   N/A     -5  -8  87 W5        29.83S
IDAHO FALLS    CLEAR     17   5  59 S9        29.99S WCI   6
SALMON         CLEAR      5   1  85 CALM      30.00S
BOISE          CLEAR     25  14  63 SE9       30.01F WCI  15
SPOKANE        FLURRIES  28  23  81 E7        29.97F WCI  21
$$

REGIONAL REPORTS...ALBERTA

CITY           SKY/WX    TMP DP  RH WIND       PRES   REMARKS
EDMONTON       MOCLDY    -2  -9  71 NW13      30.26S WCI -21
CALGARY        MOCLDY    -2 -11  65 N14       30.14R WCI -21
LETHBRIDGE     CLOUDY     3  -4  72 N13       30.19R WCI -14
MEDICINE HAT   LGT SNOW   1  -4  78 NW10      30.20S WCI -14
WATERTON GATE    N/A      1  -2  85 E9          N/A  WCI -14
CARDSTON         N/A      1  -2  85 N5          N/A
MILK RIVER       N/A      1  -2  85 N10         N/A  WCI -14
ONEFOUR          N/A      0  -4  85 NW22        N/A  WCI -23
$$

REGIONAL REPORTS...SASKATCHEWAN

CITY           SKY/WX    TMP DP  RH WIND       PRES   REMARKS
SWIFT CURRENT  CLEAR     -2  -6  84 NW18G24   30.01S WCI -24
REGINA         FLURRIES   9   3  78 NW20G25   29.98R WCI -11
SASKATOON      FLURRIES   7  -2  66 NW18      30.08R WCI -12
CYPRESS HILLS    N/A     -6 -11  77 NW10G21     N/A  WCI -23
VAL MARIE        N/A      3  -4  72 NW18        N/A  WCI -17
ROCKGLEN         N/A      1  -2  85 NW22G31     N/A  WCI -21
ASSINIBOIA       N/A      0  -8  71 NW20G25     N/A  WCI -22
$$



USA.gov is the U.S. government's official web portal to all federal, state and local government web resources and services.